カタログに戻る

FENGYUN 1C DEB

運用中SSO
NORAD 29930·DEBRIS·🇨🇳 China

打ち上げ May 10, 1999 から Taiyuan Satellite Launch Center

Loading…

次のパス (今後24時間)

TLE

最新Source: Space-Track

元期: Sep 14, 2026, 14:08 UTC

1 29930U 99025JC  26257.58938927  .00000328  00000-0  15160-3 0  9990
2 29930  99.0093 150.9499 0163239 345.0899 129.7652 14.21094991 18072

AllMySatでFENGYUN 1C DEBをリアルタイム追跡

Download on the App Store